Location: Ravencliff
(37.6982°N, 81.4812°W)
Time: 18:57:19
(UTC+00:00)

ACS3 Solar Sail - Pass Details

Date: 22 April 2026
Orbit: 894 x 947 km, 97.2° (Epoch: 12 May)

Event Time Altitude Azimuth Distance (km) Brightness Sun altitude
Rises 06:27:47 0° 12° (NNE) 3,553 5.7 -37.9°
Reaches altitude 10° 06:30:12 10° 13° (NNE) 2,614 4.8 -37.8°
Enters shadow 06:33:38 38° 18° (NNE) 1,384 2.9 -37.5°
